LEPALXGB

Guest
Details From LEPA - Palma De Mallorca
To LXGB - LXGB Gibraltar
Flight Number -
Tags decoded
Created
Modified
Stats Distance 453 nm / 839 km
Max Altitude 0 ft / 0 m
Waypoints 3
Social Downloads 13
Likes 0
Share VATSIM

Download

Looking for another format? Having issues loading an existing format? Contact us
Advertisement - Login to hide

Notes

Requested: LEPA GONZA LXGB

Route

LEPA GONZA LXGB

ID Type Via Altitude Latitude Longitude Leg Dist Tot Dist Heading (true) Name
O LEPA APT - 0 ft / 0 m 39.55254˚ 2.73496˚ - 0 nm - Palma De Mallorca
GONZA FIX - 0 ft / 0 m 36.20476˚ -2.87694˚ 333 nm 333 nm 235° / 231° -
O LXGB APT - 0 ft / 0 m 36.15121˚ -5.34966˚ 119 nm 453 nm 269° / 268° LXGB Gibraltar

Altitude Profile

Advertisement - Login to hide

Weather


0- 5 10 15 20 25 30 35+ Temperature / ° C

Clouds and Precipitation
Forecast for 2017-12-16 00:00 UTC. Updated an hour ago

Ground ~20,000 ft ~40,000 ft Winds

LEPA

Details ICAO LEPA (PMI)
Name Palma De Mallorca
Region Spain
Timezone Europe/Madrid (UTC+1.0)
Stats Elevation 24 ft / 7 m (AMSL)
Location 39.552536° 2.734958°
Runways 3
Magnetic Variation 0.986° E

METAR

LEPA 152200Z 31004KT 250V010 9999 FEW030 13/05 Q1010 NOSIG

Decode

TAF

TAF LEPA 151700Z 1518/1618 30008KT 9999 FEW025 TX14/1612Z TN09/1606Z PROB40 TEMPO 1518/1605 31014G24KT TEMPO 1600/1618 FEW020TCU BKN025

Decode

Departure Runways

ID Width Length Bearing (true) Bearing (mag) Surface Threshold Offset Overrun Length
06C 148 ft / 45 m 8,181 ft / 2,494 m 58.47° 57.48° Asphalt 0 ft / 0 m 0 ft / 0 m
06L 148 ft / 45 m 10,716 ft / 3,266 m 58.46° 57.47° Asphalt 0 ft / 0 m 0 ft / 0 m
06R 148 ft / 45 m 9,832 ft / 2,997 m 58.48° 57.49° Asphalt 1,345 ft / 410 m 0 ft / 0 m
24C 148 ft / 45 m 8,181 ft / 2,494 m 238.49° 237.50° Asphalt 0 ft / 0 m 0 ft / 0 m
24L 148 ft / 45 m 9,832 ft / 2,997 m 238.50° 237.51° Asphalt 0 ft / 0 m 197 ft / 60 m
24R 148 ft / 45 m 10,716 ft / 3,266 m 238.48° 237.49° Asphalt 230 ft / 70 m 0 ft / 0 m

LXGB

Details ICAO LXGB (GIB)
Name Gibraltar
Region Gibralter
Timezone Europe/Gibraltar (UTC+1.0)
Stats Elevation 15 ft / 5 m (AMSL)
Location 36.151209° -5.349664°
Runways 1
Magnetic Variation 1.122° W

METAR

LXGB 152150Z AUTO 25017KT 9999 // SCT021/// BKN028/// 17/15 Q1014

Decode

TAF

Not found

Destination Runways

ID Width Length Bearing (true) Bearing (mag) Surface Threshold Offset Overrun Length
27 151 ft / 46 m 5,992 ft / 1,826 m 267.56° 268.68° Asphalt 367 ft / 112 m 89 ft / 27 m
9 151 ft / 46 m 5,992 ft / 1,826 m 87.54° 88.66° Asphalt 299 ft / 91 m 52 ft / 16 m

Popular Alternatives